Flag for U.S.A. Weather past 2 weeks in Orlando, Florida, U.S.A.

Now
80 °F

Clear.


Feels Like: 85 °F
Forecast: 76 / 91 °F
Wind: No wind

Location: Orlando Executive Airport

Current Time: Sep 3, 2015 at 5:00:31 AM

Latest Report: Sep 3, 2015 at 3:53 AM


Visibility: 10 mi

Pressure: 29.96 "Hg

Humidity: 87%

Dew point: 76 °F

Location of OrlandoLocation

Historic Weather in Orlando — Graph

°F

Orlando temperature yesterday

Maximum temperature yesterday: 94 °F (at 4:53 PM)
Minimum temperature yesterday: 78 °F (at 4:53 AM)
Average temperature yesterday: 84 °F

Past Weeks' High & Low Weather Summary

 TemperatureHumidityPressure
High96 °F (Aug 25, 5:53 PM)100% (Aug 19, 3:53 AM)30.12 "Hg (Aug 19, 3:53 AM)
Low73 °F (Aug 27, 6:53 AM)43% (Aug 25, 5:53 PM)29.87 "Hg (Aug 25, 6:53 PM)
Average82 °F84%30.00 "Hg
* Reported Aug 19 3:53 AM — Sep 3 3:53 AM, Orlando, Weather by CustomWeather, © 2015

Note: Actual official high and low records may vary slightly from our data, if they occured in-between our weather recording intervals... More about our weather records

Advertising

Orlando weather history for previous 24 hours

 ConditionsComfort  
Time TempWeatherWind HumidityBarometerVisibility
3:53 AM
Thu, Sep 3
80 °FClear.No wind87%29.96 "Hg10 mi
2:53 AM80 °FClear.5 mph90%29.98 "Hg10 mi
1:53 AM79 °FClear.5 mph94%29.99 "Hg10 mi
12:53 AM80 °FClear.3 mph87%30.02 "Hg10 mi
11:53 PM
Wed, Sep 2
81 °FClear.5 mph82%30.02 "Hg10 mi
10:53 PM80 °FClear.No wind79%30.02 "Hg10 mi
10:01 PM79 °FClear.No wind82%30.02 "Hg10 mi
8:53 PM80 °FThundershowers. Clear.3 mph79%30.01 "Hg10 mi
7:53 PM83 °FThunderstorms. Mostly cloudy.18 mph79%30.01 "Hg10 mi
7:00 PM91 °FThunderstorms. Partly sunny.14 mph61%29.97 "Hg10 mi
5:53 PM93 °FSunny.No wind52%29.97 "Hg10 mi
4:53 PM94 °FPassing clouds.No wind54%29.98 "Hg10 mi
3:53 PM93 °FPassing clouds.3 mph56%30.00 "Hg10 mi
2:53 PM92 °FScattered clouds.9 mph60%30.03 "Hg10 mi
1:53 PM91 °FPassing clouds.8 mph64%30.06 "Hg10 mi
12:53 PM89 °FScattered clouds.8 mph65%30.08 "Hg10 mi
11:53 AM89 °FScattered clouds.7 mph68%30.10 "Hg10 mi
10:53 AM87 °FScattered clouds.6 mph75%30.11 "Hg10 mi
9:53 AM84 °FSunny.6 mph83%30.10 "Hg10 mi
8:53 AM82 °FSunny.9 mph88%30.10 "Hg10 mi
7:53 AM79 °FClear.5 mph94%30.09 "Hg10 mi
6:53 AM78 °FClear.3 mph96%30.08 "Hg10 mi
5:53 AM78 °FClear.3 mph100%30.06 "Hg10 mi
Weather by CustomWeather, © 2015

See weather overviewHow to use our weather pages